TimeEDT,TemperatureF,Dew PointF,Humidity,Sea Level PressureIn,VisibilityMPH,Wind Direction,Wind SpeedMPH,Gust SpeedMPH,PrecipitationIn,Events,Conditions,WindDirDegrees,DateUTC
12:14 AM,41.9,38.7,88,30.01,10.0,WSW,5.8,-,N/A,,Scattered Clouds,250,2012-10-06 04:14:00
12:34 AM,41.4,38.3,89,30.01,10.0,SW,4.6,-,N/A,,Scattered Clouds,230,2012-10-06 04:34:00
12:53 AM,41.0,37.6,88,30.01,10.0,WSW,3.5,-,N/A,,Clear,240,2012-10-06 04:53:00
1:14 AM,40.5,37.4,89,30.00,10.0,SW,3.5,-,N/A,,Scattered Clouds,230,2012-10-06 05:14:00
1:34 AM,39.7,36.9,89,30.00,10.0,SW,3.5,-,N/A,,Mostly Cloudy,220,2012-10-06 05:34:00
1:53 AM,39.7,37.4,91,30.00,10.0,SW,3.5,-,N/A,,Mostly Cloudy,220,2012-10-06 05:53:00
2:14 AM,39.6,37.0,91,30.01,10.0,SW,4.6,-,N/A,,Scattered Clouds,220,2012-10-06 06:14:00
2:54 AM,40.1,37.4,90,30.00,10.0,SW,4.6,-,N/A,,Mostly Cloudy,220,2012-10-06 06:54:00
3:14 AM,39.7,37.0,90,30.00,10.0,SW,3.5,-,N/A,,Mostly Cloudy,230,2012-10-06 07:14:00
3:34 AM,39.6,36.9,90,29.99,10.0,SW,5.8,-,N/A,,Mostly Cloudy,220,2012-10-06 07:34:00
3:54 AM,39.0,36.3,90,29.99,10.0,SW,6.9,-,N/A,,Scattered Clouds,220,2012-10-06 07:54:00
4:13 AM,38.5,35.8,90,29.99,10.0,SW,6.9,-,N/A,,Clear,220,2012-10-06 08:13:00
4:34 AM,38.5,35.8,90,29.99,10.0,SW,5.8,-,N/A,,Clear,220,2012-10-06 08:34:00
4:54 AM,37.9,35.2,90,29.99,10.0,SW,5.8,-,N/A,,Clear,220,2012-10-06 08:54:00
5:34 AM,37.9,35.2,90,29.99,10.0,SW,6.9,-,N/A,,Clear,220,2012-10-06 09:34:00
5:54 AM,37.0,34.5,91,30.00,10.0,SSW,6.9,-,N/A,,Clear,210,2012-10-06 09:54:00
6:13 AM,36.5,34.2,91,30.00,10.0,SSW,4.6,-,N/A,,Clear,210,2012-10-06 10:13:00
6:34 AM,36.5,34.3,92,30.00,10.0,SW,6.9,-,N/A,,Clear,220,2012-10-06 10:34:00
6:54 AM,36.1,34.2,93,30.02,10.0,WSW,4.6,-,N/A,,Scattered Clouds,240,2012-10-06 10:54:00
7:13 AM,36.9,34.7,92,30.02,10.0,SW,3.5,-,N/A,,Mostly Cloudy,230,2012-10-06 11:13:00
7:34 AM,37.0,34.9,92,30.03,10.0,SSW,5.8,-,N/A,,Overcast,210,2012-10-06 11:34:00
7:54 AM,36.5,34.5,93,30.04,10.0,SSW,5.8,-,N/A,,Mostly Cloudy,210,2012-10-06 11:54:00
8:14 AM,37.4,35.2,92,30.04,10.0,SSW,6.9,-,N/A,,Overcast,210,2012-10-06 12:14:00
8:34 AM,37.9,35.8,92,30.05,10.0,SSW,5.8,-,N/A,,Overcast,210,2012-10-06 12:34:00
8:53 AM,38.7,36.3,91,30.05,10.0,SW,4.6,-,N/A,,Overcast,220,2012-10-06 12:53:00
9:14 AM,40.5,37.6,89,30.05,10.0,SSW,4.6,-,N/A,,Overcast,210,2012-10-06 13:14:00
9:34 AM,43.9,37.4,78,30.05,10.0,West,9.2,-,N/A,,Overcast,280,2012-10-06 13:34:00
9:53 AM,44.6,35.2,70,30.05,10.0,WNW,11.5,18.4,N/A,,Overcast,300,2012-10-06 13:53:00
10:14 AM,46.4,34.9,64,30.05,10.0,WNW,13.8,20.7,N/A,,Scattered Clouds,290,2012-10-06 14:14:00
10:34 AM,46.6,34.9,64,30.06,10.0,West,13.8,18.4,N/A,,Mostly Cloudy,280,2012-10-06 14:34:00
10:53 AM,46.2,33.3,61,30.07,10.0,WNW,11.5,21.9,N/A,,Overcast,290,2012-10-06 14:53:00
11:14 AM,46.2,32.9,60,30.07,10.0,WNW,16.1,21.9,N/A,,Overcast,290,2012-10-06 15:14:00
11:33 AM,45.7,33.4,62,30.07,10.0,WNW,13.8,-,N/A,,Overcast,290,2012-10-06 15:33:00
11:54 AM,46.8,34.0,61,30.07,10.0,West,10.4,-,N/A,,Overcast,280,2012-10-06 15:54:00
12:14 PM,46.0,34.2,63,30.08,10.0,West,12.7,21.9,N/A,,Overcast,280,2012-10-06 16:14:00
12:33 PM,47.3,34.2,60,30.08,7.0,West,13.8,21.9,N/A,,Overcast,280,2012-10-06 16:33:00
12:54 PM,46.6,33.6,61,30.09,10.0,West,13.8,17.3,N/A,,Overcast,270,2012-10-06 16:54:00
1:13 PM,45.7,33.8,63,30.09,10.0,West,11.5,-,N/A,,Overcast,280,2012-10-06 17:13:00
1:34 PM,45.5,33.4,63,30.10,10.0,West,9.2,17.3,N/A,,Overcast,280,2012-10-06 17:34:00
1:54 PM,45.9,33.4,62,30.10,10.0,West,10.4,-,N/A,,Overcast,280,2012-10-06 17:54:00
2:13 PM,45.5,33.4,63,30.10,10.0,West,10.4,-,N/A,,Overcast,280,2012-10-06 18:13:00
2:34 PM,45.7,33.4,62,30.10,10.0,West,10.4,-,N/A,,Overcast,280,2012-10-06 18:34:00
2:54 PM,45.5,33.1,62,30.10,10.0,West,13.8,18.4,N/A,,Overcast,280,2012-10-06 18:54:00
3:14 PM,45.1,34.0,65,30.10,10.0,West,10.4,18.4,N/A,,Overcast,280,2012-10-06 19:14:00
3:34 PM,46.2,34.7,64,30.10,10.0,West,13.8,19.6,N/A,,Overcast,280,2012-10-06 19:34:00
3:54 PM,45.5,34.9,66,30.10,10.0,West,10.4,18.4,N/A,,Overcast,280,2012-10-06 19:54:00
4:14 PM,44.8,35.2,69,30.10,10.0,WNW,6.9,-,N/A,,Overcast,290,2012-10-06 20:14:00
4:34 PM,44.6,36.5,73,30.09,10.0,WNW,8.1,-,N/A,Rain,Light Rain,290,2012-10-06 20:34:00
4:53 PM,45.3,36.9,72,30.09,10.0,West,6.9,-,N/A,,Overcast,270,2012-10-06 20:53:00
5:14 PM,45.7,36.1,69,30.09,10.0,West,5.8,-,N/A,,Overcast,280,2012-10-06 21:14:00
5:34 PM,45.5,36.0,69,30.10,10.0,WNW,4.6,-,N/A,,Overcast,290,2012-10-06 21:34:00
5:53 PM,45.0,36.0,71,30.11,10.0,West,8.1,-,N/A,,Overcast,280,2012-10-06 21:53:00
6:14 PM,44.4,37.8,77,30.11,10.0,WNW,4.6,-,N/A,Rain,Light Rain,300,2012-10-06 22:14:00
6:34 PM,44.4,38.3,79,30.12,10.0,NW,4.6,-,N/A,Rain,Rain,310,2012-10-06 22:34:00
6:53 PM,43.3,38.3,82,30.12,10.0,Calm,Calm,-,N/A,,Light Drizzle,0,2012-10-06 22:53:00
7:14 PM,43.0,39.2,86,30.12,10.0,Calm,Calm,-,N/A,,Overcast,0,2012-10-06 23:14:00
7:34 PM,43.0,39.6,88,30.12,10.0,Calm,Calm,-,N/A,,Overcast,0,2012-10-06 23:34:00
7:54 PM,43.0,39.2,86,30.12,10.0,Calm,Calm,-,N/A,,Overcast,0,2012-10-06 23:54:00
8:14 PM,43.2,38.8,85,30.13,10.0,Calm,Calm,-,N/A,,Overcast,0,2012-10-07 00:14:00
8:34 PM,43.2,37.6,81,30.13,10.0,Calm,Calm,-,N/A,,Overcast,0,2012-10-07 00:34:00
8:54 PM,43.9,38.1,80,30.13,10.0,Calm,Calm,-,N/A,,Overcast,0,2012-10-07 00:54:00
9:14 PM,43.2,38.8,85,30.14,10.0,Calm,Calm,-,N/A,,Overcast,0,2012-10-07 01:14:00
9:34 PM,43.0,39.4,87,30.14,10.0,Calm,Calm,-,N/A,,Overcast,0,2012-10-07 01:34:00
9:54 PM,43.0,39.2,86,30.14,10.0,Calm,Calm,-,N/A,,Overcast,0,2012-10-07 01:54:00
10:14 PM,43.2,39.4,86,30.14,10.0,Calm,Calm,-,N/A,,Overcast,0,2012-10-07 02:14:00
10:34 PM,43.2,39.4,86,30.14,10.0,Calm,Calm,-,N/A,,Overcast,0,2012-10-07 02:34:00
10:54 PM,42.8,39.4,88,30.14,10.0,Calm,Calm,-,N/A,,Overcast,0,2012-10-07 02:54:00
11:13 PM,42.8,39.6,88,30.14,10.0,Calm,Calm,-,N/A,,Overcast,0,2012-10-07 03:13:00
11:34 PM,42.8,39.6,88,30.14,10.0,Calm,Calm,-,N/A,,Overcast,0,2012-10-07 03:34:00
11:54 PM,42.6,39.4,88,30.14,10.0,Calm,Calm,-,N/A,,Overcast,0,2012-10-07 03:54:00